Weather History for Milford, UT

Change the Weather History Date:

Monday, March 4, 2013

  Actual Average Record
Temperature  
Mean Temperature 34 °F -  
Max Temperature 43 °F 48 °F 57 °F (2009)
Min Temperature 23 °F 22 °F 7 °F (2002)
Degree Days  
Heating Degree Days 30    
Moisture  
Dew Point 26 °F    
Average Humidity 64    
Maximum Humidity 93    
Minimum Humidity 21    
Precipitation  
Precipitation 0.01 in - - ()
Sea Level Pressure  
Sea Level Pressure 30.05 in    
Wind  
Wind Speed 11 mph (North)    
Max Wind Speed 23 mph    
Max Gust Speed 30 mph    
Visibility 9 miles    
Events Fog , Rain    
Averages and records for this station are not official NWS values.
T = Trace of Precipitation, MM = Missing Value Source: NWS Daily Summary

Daily Weather History Graph

Daily Weather History Graph

Search for Another Location

Airport:

Trip Planner

Search our weather history database for the weather conditions in past years. The results will help you decide how hot, cold, wet, or windy it might be!

Date:

Astronomy

Mar. 04, 2013 Rise Set
Actual Time 6:59 AM MST 6:28 PM MST
Civil Twilight 6:32 AM MST 6:55 PM MST
Nautical Twilight 6:02 AM MST 7:25 PM MST
Astronomical Twilight 5:31 AM MST 7:56 PM MST
Moon 1:09 AM MST (3/4) 11:17 AM MST (3/4)
Length of Visible Light 12h 22m
Length of Day
11h 29m
Waning Gibbous, 51% of the Moon is Illuminated
Mar 4
Waning Gibbous
Mar 4
Last Quarter
Mar 11
New
Mar 19
First Quarter
Mar 27
Full

Hourly Weather History & Observations

Time (MST) Temp. Windchill Dew Point Humidity Pressure Visibility Wind Dir Wind Speed Gust Speed Precip Events Conditions
12:03 AM 41.0 °F 35.8 °F 37.4 °F 87% 29.90 in 0.2 mi South 8.1 mph - N/A Fog Fog
12:14 AM 41.0 °F 36.4 °F 37.4 °F 87% 29.90 in 4.0 mi SSW 6.9 mph - N/A   Overcast
12:52 AM 39.9 °F 33.9 °F 37.0 °F 89% 29.83 in 10.0 mi SSW 9.2 mph - 0.00 in Rain Light Rain
1:52 AM 39.9 °F 33.4 °F 37.0 °F 89% 29.83 in 9.0 mi SW 10.4 mph - 0.01 in Rain Light Rain
2:52 AM 39.0 °F - 37.0 °F 93% 29.86 in 10.0 mi Calm Calm - 0.00 in   Overcast
3:21 AM 39.2 °F - 35.6 °F 87% 29.92 in 10.0 mi Calm Calm - N/A   Overcast
3:52 AM 39.0 °F 34.8 °F 37.0 °F 93% 29.86 in 10.0 mi WSW 5.8 mph - 0.00 in Rain Light Rain
4:27 AM 39.2 °F 33.0 °F 37.4 °F 93% 29.93 in 10.0 mi NNW 9.2 mph - N/A   Overcast
4:47 AM 39.2 °F 30.8 °F 35.6 °F 87% 29.93 in 10.0 mi NNW 15.0 mph - N/A   Overcast
4:52 AM 39.0 °F 31.4 °F 35.1 °F 86% 29.88 in 10.0 mi NNW 12.7 mph - N/A   Overcast
5:38 AM 37.4 °F 28.5 °F 33.8 °F 87% 29.94 in 10.0 mi North 15.0 mph - N/A   Mostly Cloudy
5:44 AM 39.2 °F 30.8 °F 33.8 °F 81% 29.95 in 10.0 mi North 15.0 mph - N/A   Overcast
5:52 AM 39.0 °F 31.4 °F 34.0 °F 82% 29.91 in 10.0 mi North 12.7 mph - N/A   Overcast
6:00 AM - - - N/A% - - North - - N/A   Unknown
6:52 AM 37.0 °F 28.9 °F 32.0 °F 82% 29.96 in 10.0 mi North 12.7 mph - N/A   Overcast
7:23 AM 35.6 °F 26.2 °F 30.2 °F 81% 30.00 in 10.0 mi North 15.0 mph - N/A   Overcast
7:40 AM 35.6 °F 28.0 °F 30.2 °F 81% 30.01 in 10.0 mi North 10.4 mph - N/A   Overcast
7:52 AM 36.0 °F 27.5 °F 30.9 °F 82% 29.99 in 10.0 mi North 12.7 mph - N/A   Overcast
8:39 AM 35.6 °F 25.9 °F 28.4 °F 75% 30.05 in 10.0 mi North 16.1 mph - N/A   Overcast
8:52 AM 37.0 °F 27.4 °F 28.0 °F 70% 30.04 in 10.0 mi North 17.3 mph - N/A   Overcast
9:26 AM 39.2 °F 30.2 °F 28.4 °F 65% 30.07 in 10.0 mi North 17.3 mph - N/A   Overcast
9:52 AM 37.9 °F 28.2 °F 28.0 °F 68% 30.06 in 10.0 mi NNE 18.4 mph - N/A   Overcast
10:52 AM 39.9 °F 29.7 °F 24.1 °F 53% 30.08 in 10.0 mi NNE 23.0 mph - N/A   Mostly Cloudy
11:52 AM 39.0 °F 28.5 °F 19.9 °F 46% 30.12 in 10.0 mi NNE 23.0 mph 29.9 mph N/A   Overcast
12:52 PM 44.1 °F 35.4 °F 19.0 °F 37% 30.11 in 10.0 mi NNE 21.9 mph 28.8 mph N/A   Overcast
1:28 PM 42.8 °F 33.8 °F 17.6 °F 36% 30.13 in 1.0 mi NNE 21.9 mph 29.9 mph N/A   Haze
1:33 PM 42.8 °F 34.3 °F 17.6 °F 36% 30.13 in 0.5 mi NNE 19.6 mph 29.9 mph N/A   Haze
1:40 PM 42.8 °F 34.5 °F 17.6 °F 36% 30.13 in 4.0 mi North 18.4 mph - N/A   Haze
1:52 PM 41.0 °F 32.5 °F 18.0 °F 40% 30.12 in 10.0 mi NNE 17.3 mph 25.3 mph N/A   Overcast
2:52 PM 44.1 °F 36.8 °F 18.0 °F 35% 30.11 in 0.5 mi North 16.1 mph 24.2 mph N/A   Haze
3:09 PM 44.6 °F 37.8 °F 17.6 °F 34% 30.14 in 3.0 mi North 15.0 mph 21.9 mph N/A   Haze
3:52 PM 44.1 °F 36.8 °F 17.1 °F 34% 30.13 in 10.0 mi North 16.1 mph - N/A   Clear
4:52 PM 43.0 °F 38.2 °F 16.0 °F 34% 30.14 in 10.0 mi NNE 8.1 mph 17.3 mph N/A   Clear
5:52 PM 41.0 °F 34.7 °F 17.1 °F 38% 30.16 in 10.0 mi North 10.4 mph - N/A   Clear
6:52 PM 35.1 °F 28.6 °F 18.0 °F 50% 30.20 in 10.0 mi NNE 8.1 mph - N/A   Clear
7:52 PM 30.9 °F 24.3 °F 18.0 °F 59% 30.23 in 10.0 mi North 6.9 mph - N/A   Clear
8:52 PM 30.9 °F 22.2 °F 18.0 °F 59% 30.23 in 10.0 mi NNW 10.4 mph - N/A   Clear
9:08 PM 30.2 °F 21.9 °F 17.6 °F 60% 30.20 in 3.0 mi NNW 9.2 mph - N/A   Haze
9:52 PM 26.1 °F 17.6 °F 18.0 °F 71% 30.25 in 10.0 mi NNE 8.1 mph - N/A   Clear
10:52 PM 26.1 °F 21.9 °F 17.1 °F 69% 30.26 in 10.0 mi ENE 3.5 mph - N/A   Clear
11:52 PM 23.0 °F - 17.1 °F 78% 30.27 in 10.0 mi Calm Calm - N/A   Clear